This is the latest recevied weather packets stored in our database for station/object KK7KHO. If no packets are shown the sender has not sent any weather packets the latest 10 day(s).
| Time | Temp. | Humidity | Pressure | Rain* | Wind** | Luminosity | Snow |
|---|---|---|---|---|---|---|---|
| 1777690194 | 14.44° C | 79% | 1014.3 hPa | 0 mm | - | 28 W/m² | - |
| 1777689892 | 14.44° C | 78% | 1014.1 hPa | 0 mm | - | 29 W/m² | - |
| 1777689590 | 14.44° C | 78% | 1014.3 hPa | 0 mm | - | 35 W/m² | - |
| 1777689288 | 14.44° C | 79% | 1014.1 hPa | 0 mm | - | 42 W/m² | - |
| 1777688985 | 14.44° C | 77% | 1013.8 hPa | 0 mm | - | 42 W/m² | - |
| 1777688681 | 15° C | 76% | 1014 hPa | 0 mm | - | 42 W/m² | - |
| 1777688378 | 15° C | 75% | 1014.1 hPa | 0 mm | - | 43 W/m² | - |
| 1777688076 | 15° C | 74% | 1014 hPa | 0 mm | - | 47 W/m² | - |
| 1777687772 | 15° C | 74% | 1014.1 hPa | 0 mm | - | 53 W/m² | - |
| 1777687471 | 15° C | 73% | 1013.9 hPa | 0 mm | - | 59 W/m² | - |
| 1777687167 | 15.56° C | 72% | 1014 hPa | 0 mm | - | 65 W/m² | - |
| 1777686865 | 16.11° C | 71% | 1013.9 hPa | 0 mm | - | 67 W/m² | - |
| 1777686561 | 16.11° C | 72% | 1014.1 hPa | 0 mm | - | 105 W/m² | - |
| 1777686259 | 16.11° C | 73% | 1014.1 hPa | 0 mm | - | 101 W/m² | - |
| 1777685955 | 16.11° C | 75% | 1013.9 hPa | 0 mm | - | 93 W/m² | - |
| 1777685650 | 16.11° C | 73% | 1014 hPa | 0 mm | - | 115 W/m² | - |
| 1777685347 | 16.11° C | 74% | 1013.9 hPa | 0 mm | - | 108 W/m² | - |
| 1777685045 | 16.11° C | 76% | 1013.9 hPa | 0 mm | - | 119 W/m² | - |
| 1777684742 | 16.11° C | 75% | 1013.8 hPa | 0 mm | - | 92 W/m² | - |
| 1777684438 | 16.11° C | 74% | 1014.2 hPa | 0 mm | - | 98 W/m² | - |
| 1777684135 | 16.11° C | 75% | 1014.1 hPa | 0 mm | - | 98 W/m² | - |
| 1777683832 | 16.11° C | 75% | 1014.3 hPa | 0 mm | - | 102 W/m² | - |
| 1777683528 | 16.11° C | 75% | 1014.2 hPa | 0 mm | - | 103 W/m² | - |
| 1777683227 | 16.67° C | 74% | 1014 hPa | 0 mm | - | 106 W/m² | - |
| 1777682924 | 16.67° C | 74% | 1014.1 hPa | 0 mm | - | 101 W/m² | - |
* Rain latest hour (hover to see other rain measurements)
** Current wind speed in m/s (hover to see current wind gust speed)